TimeAKDT,TemperatureF,Dew PointF,Humidity,Sea Level PressureIn,VisibilityMPH,Wind Direction,Wind SpeedMPH,Gust SpeedMPH,PrecipitationIn,Events,Conditions,WindDirDegrees,DateUTC
12:53 AM,27.0,26.1,96,29.09,10.0,Calm,Calm,-,N/A,,Overcast,0,2012-10-16 08:53:00
1:05 AM,26.6,26.6,100,29.08,1.8,Calm,Calm,-,N/A,,Overcast,0,2012-10-16 09:05:00
1:16 AM,26.6,26.6,100,29.07,0.5,Calm,Calm,-,N/A,Fog,Light Freezing Fog,0,2012-10-16 09:16:00
1:53 AM,26.1,24.1,92,29.10,0.5,Calm,Calm,-,N/A,Fog,Light Freezing Fog,0,2012-10-16 09:53:00
2:53 AM,25.0,24.1,96,29.11,0.2,Calm,Calm,-,N/A,Fog,Light Freezing Fog,0,2012-10-16 10:53:00
3:53 AM,24.1,21.0,88,29.12,0.5,Calm,Calm,-,N/A,Fog,Light Freezing Fog,0,2012-10-16 11:53:00
4:12 AM,23.0,21.2,93,29.10,0.5,Calm,Calm,-,N/A,Fog,Light Freezing Fog,0,2012-10-16 12:12:00
4:25 AM,24.8,21.2,86,29.10,1.5,Calm,Calm,-,N/A,,Overcast,0,2012-10-16 12:25:00
4:35 AM,23.0,21.2,93,29.11,0.5,Calm,Calm,-,N/A,Fog,Light Freezing Fog,0,2012-10-16 12:35:00
4:53 AM,23.0,21.0,92,29.13,0.5,Calm,Calm,-,N/A,Fog,Light Freezing Fog,0,2012-10-16 12:53:00
5:24 AM,21.2,19.4,93,29.12,2.5,Calm,Calm,-,N/A,,Overcast,0,2012-10-16 13:24:00
5:31 AM,21.2,19.4,93,29.12,10.0,Calm,Calm,-,N/A,,Overcast,0,2012-10-16 13:31:00
5:53 AM,21.0,19.0,92,29.14,10.0,Calm,Calm,-,N/A,,Mostly Cloudy,0,2012-10-16 13:53:00
6:53 AM,21.9,21.0,96,29.15,10.0,Calm,Calm,-,N/A,,Overcast,0,2012-10-16 14:53:00
7:53 AM,23.0,21.9,96,29.17,10.0,Calm,Calm,-,N/A,,Overcast,0,2012-10-16 15:53:00
8:03 AM,23.0,21.2,93,29.16,10.0,Calm,Calm,-,N/A,,Overcast,0,2012-10-16 16:03:00
8:53 AM,24.1,23.0,96,29.19,10.0,Calm,Calm,-,N/A,,Overcast,0,2012-10-16 16:53:00
9:02 AM,24.8,21.2,86,29.18,10.0,Calm,Calm,-,N/A,,Overcast,0,2012-10-16 17:02:00
9:53 AM,23.0,21.9,96,29.22,10.0,Calm,Calm,-,N/A,,Partly Cloudy,0,2012-10-16 17:53:00
10:53 AM,24.1,23.0,96,29.24,10.0,Calm,Calm,-,N/A,,Overcast,0,2012-10-16 18:53:00
11:53 AM,25.0,23.0,92,29.27,10.0,Calm,Calm,-,N/A,,Overcast,0,2012-10-16 19:53:00
12:53 PM,26.1,25.0,96,29.29,10.0,Calm,Calm,-,N/A,,Overcast,0,2012-10-16 20:53:00
1:53 PM,28.0,24.1,85,29.30,10.0,Calm,Calm,-,N/A,,Overcast,0,2012-10-16 21:53:00
2:53 PM,28.9,23.0,78,29.31,10.0,Calm,Calm,-,N/A,,Mostly Cloudy,0,2012-10-16 22:53:00
3:53 PM,32.0,24.1,73,29.31,10.0,Calm,Calm,-,N/A,,Clear,0,2012-10-16 23:53:00
4:53 PM,32.0,25.0,75,29.32,10.0,SSW,3.5,-,N/A,,Clear,200,2012-10-17 00:53:00
5:53 PM,30.9,26.1,82,29.34,10.0,South,3.5,-,N/A,,Clear,170,2012-10-17 01:53:00
6:53 PM,30.0,27.0,88,29.37,10.0,Calm,Calm,-,N/A,,Clear,0,2012-10-17 02:53:00
7:53 PM,30.0,27.0,88,29.40,10.0,South,8.1,-,N/A,,Clear,170,2012-10-17 03:53:00
8:53 PM,28.9,25.0,85,29.44,10.0,South,3.5,-,N/A,,Clear,180,2012-10-17 04:53:00
9:53 PM,28.0,25.0,88,29.48,10.0,Calm,Calm,-,N/A,,Overcast,0,2012-10-17 05:53:00
10:53 PM,28.9,26.1,89,29.52,4.0,Calm,Calm,-,0.00,Snow,Light Snow,0,2012-10-17 06:53:00
11:53 PM,28.0,26.1,92,29.56,10.0,Calm,Calm,-,0.00,,Mostly Cloudy,0,2012-10-17 07:53:00